Time,TemperatureF,DewpointF,PressureIn,WindDirection,WindDirectionDegrees,WindSpeedMPH,WindSpeedGustMPH,Humidity,HourlyPrecipIn,Conditions,Clouds,dailyrainin,SoftwareType,DateUTC
2013-04-19 00:11:00,62.1,61.5,30.01,South,180,4.7,-999.0,98,-99.99,,,0.00,Acu-Link.com,2013-04-19 04:11:00,
2013-04-19 00:26:00,61.9,61.3,30.01,SW,225,3.7,-999.0,98,-99.99,,,0.00,Acu-Link.com,2013-04-19 04:26:00,
2013-04-19 00:41:00,61.9,61.3,30.00,SSE,157,2.7,-999.0,98,-99.99,,,0.00,Acu-Link.com,2013-04-19 04:41:00,
2013-04-19 00:56:00,61.5,60.9,29.99,South,180,3.7,-999.0,98,-99.99,,,0.00,Acu-Link.com,2013-04-19 04:56:00,
2013-04-19 01:12:00,61.5,60.9,29.99,NE,45,2.2,-999.0,98,-99.99,,,0.00,Acu-Link.com,2013-04-19 05:12:00,
2013-04-19 01:27:00,61.5,60.9,29.98,SSW,202,1.7,-999.0,98,-99.99,,,0.00,Acu-Link.com,2013-04-19 05:27:00,
2013-04-19 01:42:00,61.2,60.6,29.97,South,180,2.2,-999.0,98,-99.99,,,0.00,Acu-Link.com,2013-04-19 05:42:00,
2013-04-19 01:57:00,61.2,60.6,29.96,SW,225,0.0,-999.0,98,-99.99,,,0.00,Acu-Link.com,2013-04-19 05:57:00,
2013-04-19 02:12:00,61.2,60.6,29.96,SSE,157,0.0,-999.0,98,-99.99,,,0.00,Acu-Link.com,2013-04-19 06:12:00,
2013-04-19 02:28:00,61.9,61.3,29.95,ESE,112,3.7,-999.0,98,-99.99,,,0.00,Acu-Link.com,2013-04-19 06:28:00,
2013-04-19 02:43:00,62.2,61.6,29.94,SSE,157,2.7,-999.0,98,-99.99,,,0.00,Acu-Link.com,2013-04-19 06:43:00,
2013-04-19 02:58:00,62.6,62.0,29.94,South,180,3.7,-999.0,98,-99.99,,,0.00,Acu-Link.com,2013-04-19 06:58:00,
2013-04-19 03:14:00,62.4,61.8,29.93,SSE,157,2.7,-999.0,98,-99.99,,,0.00,Acu-Link.com,2013-04-19 07:14:00,
2013-04-19 03:29:00,62.1,61.5,29.93,SSW,202,3.2,-999.0,98,-99.99,,,0.00,Acu-Link.com,2013-04-19 07:29:00,
2013-04-19 03:44:00,61.9,61.3,29.92,ESE,112,4.7,-999.0,98,-99.99,,,0.00,Acu-Link.com,2013-04-19 07:44:00,
2013-04-19 03:59:00,61.5,60.9,29.92,SE,135,2.2,-999.0,98,-99.99,,,0.00,Acu-Link.com,2013-04-19 07:59:00,
2013-04-19 04:14:00,61.3,60.7,29.92,SSE,157,0.0,-999.0,98,-99.99,,,0.00,Acu-Link.com,2013-04-19 08:14:00,
2013-04-19 04:30:00,61.2,60.6,29.92,SSE,157,0.0,-999.0,98,-99.99,,,0.00,Acu-Link.com,2013-04-19 08:30:00,
2013-04-19 04:45:00,61.7,61.1,29.91,SE,135,1.1,-999.0,98,-99.99,,,0.00,Acu-Link.com,2013-04-19 08:45:00,
2013-04-19 05:00:00,61.9,61.3,29.91,South,180,3.2,-999.0,98,-99.99,,,0.00,Acu-Link.com,2013-04-19 09:00:00,
2013-04-19 05:15:00,62.2,61.6,29.90,SW,225,1.1,-999.0,98,-99.99,,,0.00,Acu-Link.com,2013-04-19 09:15:00,
2013-04-19 05:31:00,62.4,61.8,29.90,SSE,157,2.7,-999.0,98,-99.99,,,0.00,Acu-Link.com,2013-04-19 09:31:00,
2013-04-19 05:46:00,62.6,62.0,29.90,WSW,247,0.0,-999.0,98,-99.99,,,0.00,Acu-Link.com,2013-04-19 09:46:00,
2013-04-19 06:01:00,62.8,62.2,29.90,East,90,5.3,-999.0,98,-99.99,,,0.00,Acu-Link.com,2013-04-19 10:01:00,
2013-04-19 06:16:00,62.8,62.2,29.91,SW,225,3.2,-999.0,98,-99.99,,,0.00,Acu-Link.com,2013-04-19 10:16:00,
2013-04-19 06:31:00,62.8,62.2,29.91,South,180,2.7,-999.0,98,-99.99,,,0.00,Acu-Link.com,2013-04-19 10:31:00,
2013-04-19 06:47:00,63.5,62.9,29.91,South,180,3.2,-999.0,98,-99.99,,,0.00,Acu-Link.com,2013-04-19 10:47:00,
2013-04-19 07:02:00,64.0,63.4,29.91,South,180,3.7,-999.0,98,-99.99,,,0.00,Acu-Link.com,2013-04-19 11:02:00,
2013-04-19 07:17:00,64.6,64.0,29.91,South,180,2.7,-999.0,98,-99.99,,,0.00,Acu-Link.com,2013-04-19 11:17:00,
2013-04-19 07:32:00,65.5,64.9,29.91,SSW,202,4.7,-999.0,98,-99.99,,,0.00,Acu-Link.com,2013-04-19 11:32:00,
2013-04-19 07:48:00,66.6,66.0,29.91,SSW,202,7.8,-999.0,98,-99.99,,,0.00,Acu-Link.com,2013-04-19 11:48:00,
2013-04-19 08:03:00,67.3,66.7,29.91,SW,225,4.2,-999.0,98,-99.99,,,0.00,Acu-Link.com,2013-04-19 12:03:00,
2013-04-19 08:18:00,69.3,68.7,29.90,SSW,202,3.7,-999.0,98,-99.99,,,0.00,Acu-Link.com,2013-04-19 12:18:00,
2013-04-19 08:33:00,70.3,69.7,29.89,SE,135,1.7,-999.0,98,-99.99,,,0.00,Acu-Link.com,2013-04-19 12:33:00,
2013-04-19 08:48:00,70.5,69.9,29.89,SE,135,3.2,-999.0,98,-99.99,,,0.00,Acu-Link.com,2013-04-19 12:48:00,
2013-04-19 09:03:00,69.3,68.7,29.88,WSW,247,3.7,-999.0,98,-99.99,,,0.00,Acu-Link.com,2013-04-19 13:03:00,
2013-04-19 09:18:00,69.6,69.0,29.88,South,180,6.8,-999.0,98,-99.99,,,0.00,Acu-Link.com,2013-04-19 13:18:00,
2013-04-19 09:33:00,70.0,69.4,29.87,South,180,3.7,-999.0,98,-99.99,,,0.00,Acu-Link.com,2013-04-19 13:33:00,
2013-04-19 09:48:00,70.0,69.4,29.87,South,180,6.3,-999.0,98,-99.99,,,0.00,Acu-Link.com,2013-04-19 13:48:00,
2013-04-19 10:03:00,69.4,68.8,29.88,SSW,202,3.7,-999.0,98,-99.99,,,0.00,Acu-Link.com,2013-04-19 14:03:00,
2013-04-19 10:18:00,70.3,69.7,29.88,SSW,202,9.9,-999.0,98,-99.99,,,0.00,Acu-Link.com,2013-04-19 14:18:00,
2013-04-19 10:34:00,70.3,69.7,29.87,SW,225,5.3,-999.0,98,-99.99,,,0.00,Acu-Link.com,2013-04-19 14:34:00,
2013-04-19 10:49:00,71.1,70.5,29.87,SSW,202,4.2,-999.0,98,-99.99,,,0.00,Acu-Link.com,2013-04-19 14:49:00,
2013-04-19 11:04:00,71.4,70.8,29.87,South,180,8.3,-999.0,98,-99.99,,,0.00,Acu-Link.com,2013-04-19 15:04:00,
2013-04-19 11:19:00,70.9,70.3,29.86,SSW,202,5.8,-999.0,98,-99.99,,,0.00,Acu-Link.com,2013-04-19 15:19:00,
2013-04-19 11:34:00,71.2,70.6,29.86,South,180,11.9,-999.0,98,-99.99,,,0.00,Acu-Link.com,2013-04-19 15:34:00,
2013-04-19 11:49:00,72.9,71.7,29.85,SSW,202,6.8,-999.0,96,-99.99,,,0.00,Acu-Link.com,2013-04-19 15:49:00,
2013-04-19 12:05:00,73.6,62.0,29.83,SSW,202,7.8,-999.0,67,-99.99,,,0.00,Acu-Link.com,2013-04-19 16:05:00,
2013-04-19 12:20:00,74.8,52.6,29.83,SSW,202,5.3,-999.0,46,-99.99,,,0.00,Acu-Link.com,2013-04-19 16:20:00,
2013-04-19 12:35:00,74.5,73.9,29.82,South,180,5.8,-999.0,98,-99.99,,,0.00,Acu-Link.com,2013-04-19 16:35:00,
2013-04-19 12:50:00,75.7,59.4,29.80,SSW,202,8.3,-999.0,57,-99.99,,,0.00,Acu-Link.com,2013-04-19 16:50:00,
2013-04-19 13:05:00,75.9,51.8,29.80,South,180,5.3,-999.0,43,-99.99,,,0.00,Acu-Link.com,2013-04-19 17:05:00,
2013-04-19 13:21:00,76.8,-30.7,29.78,SSE,157,6.3,-999.0,1,-99.99,,,0.00,Acu-Link.com,2013-04-19 17:21:00,
2013-04-19 13:36:00,74.5,73.9,29.78,South,180,5.8,-999.0,98,-99.99,,,0.00,Acu-Link.com,2013-04-19 17:36:00,
2013-04-19 13:51:00,74.1,73.5,29.77,SSE,157,7.8,-999.0,98,-99.99,,,0.00,Acu-Link.com,2013-04-19 17:51:00,
2013-04-19 14:06:00,75.9,49.1,29.76,SSW,202,6.8,-999.0,39,-99.99,,,0.00,Acu-Link.com,2013-04-19 18:06:00,
2013-04-19 14:22:00,75.0,69.1,29.75,ESE,112,5.8,-999.0,82,-99.99,,,0.00,Acu-Link.com,2013-04-19 18:22:00,
2013-04-19 14:37:00,77.2,38.6,29.73,WSW,247,4.2,-999.0,25,-99.99,,,0.00,Acu-Link.com,2013-04-19 18:37:00,
2013-04-19 14:52:00,77.2,-17.5,29.73,SW,225,9.4,-999.0,2,-99.99,,,0.00,Acu-Link.com,2013-04-19 18:52:00,
2013-04-19 15:07:00,75.9,59.1,29.72,South,180,4.7,-999.0,56,-99.99,,,0.00,Acu-Link.com,2013-04-19 19:07:00,
2013-04-19 15:22:00,77.4,-30.4,29.71,SSE,157,7.8,-999.0,1,-99.99,,,0.00,Acu-Link.com,2013-04-19 19:22:00,
2013-04-19 15:38:00,75.2,64.3,29.70,West,270,5.8,-999.0,69,-99.99,,,0.00,Acu-Link.com,2013-04-19 19:38:00,
2013-04-19 15:53:00,75.2,49.9,29.69,ESE,112,8.3,-999.0,41,-99.99,,,0.00,Acu-Link.com,2013-04-19 19:53:00,
2013-04-19 16:08:00,74.7,74.1,29.68,WSW,247,8.3,-999.0,98,-99.99,,,0.00,Acu-Link.com,2013-04-19 20:08:00,
2013-04-19 16:23:00,75.7,73.8,29.67,SSW,202,7.8,-999.0,94,-99.99,,,0.00,Acu-Link.com,2013-04-19 20:23:00,
2013-04-19 16:38:00,74.5,73.9,29.67,SW,225,8.3,-999.0,98,-99.99,,,0.00,Acu-Link.com,2013-04-19 20:38:00,
2013-04-19 16:53:00,73.8,73.2,29.67,WSW,247,6.3,-999.0,98,-99.99,,,0.00,Acu-Link.com,2013-04-19 20:53:00,
2013-04-19 17:08:00,72.5,71.9,29.67,WSW,247,11.9,-999.0,98,-99.99,,,0.00,Acu-Link.com,2013-04-19 21:08:00,
2013-04-19 17:24:00,71.6,71.0,29.68,SW,225,8.9,-999.0,98,-99.99,,,0.00,Acu-Link.com,2013-04-19 21:24:00,
2013-04-19 17:39:00,71.1,70.5,29.68,SSW,202,6.3,-999.0,98,-99.99,,,0.00,Acu-Link.com,2013-04-19 21:39:00,
2013-04-19 17:54:00,70.9,70.3,29.67,SE,135,8.9,-999.0,98,-99.99,,,0.00,Acu-Link.com,2013-04-19 21:54:00,
2013-04-19 18:09:00,70.7,70.1,29.66,ESE,112,11.4,-999.0,98,-99.99,,,0.00,Acu-Link.com,2013-04-19 22:09:00,
2013-04-19 18:25:00,70.5,69.9,29.67,SSW,202,6.3,-999.0,98,-99.99,,,0.00,Acu-Link.com,2013-04-19 22:25:00,
2013-04-19 18:40:00,70.5,69.9,29.66,SW,225,15.5,-999.0,98,-99.99,,,0.00,Acu-Link.com,2013-04-19 22:40:00,
2013-04-19 18:55:00,70.9,70.3,29.65,ESE,112,6.8,-999.0,98,-99.99,,,0.00,Acu-Link.com,2013-04-19 22:55:00,
2013-04-19 19:10:00,70.9,70.3,29.65,SE,135,8.3,-999.0,98,-99.99,,,0.00,Acu-Link.com,2013-04-19 23:10:00,
2013-04-19 19:25:00,70.5,69.9,29.64,SW,225,5.3,-999.0,98,-99.99,,,0.00,Acu-Link.com,2013-04-19 23:25:00,
2013-04-19 19:40:00,70.3,69.7,29.63,ENE,67,5.8,-999.0,98,-99.99,,,0.00,Acu-Link.com,2013-04-19 23:40:00,
2013-04-19 19:56:00,70.2,69.6,29.64,South,180,8.9,-999.0,98,-99.99,,,0.00,Acu-Link.com,2013-04-19 23:56:00,
2013-04-19 20:11:00,70.5,69.9,29.64,North,0,5.3,-999.0,98,-99.99,,,0.00,Acu-Link.com,2013-04-20 00:11:00,
2013-04-19 20:26:00,70.5,69.9,29.65,ESE,112,4.7,-999.0,98,-99.99,,,0.00,Acu-Link.com,2013-04-20 00:26:00,
2013-04-19 20:41:00,70.5,69.9,29.65,South,180,10.4,-999.0,98,-99.99,,,0.00,Acu-Link.com,2013-04-20 00:41:00,
2013-04-19 20:56:00,70.7,70.1,29.66,WSW,247,9.4,-999.0,98,-99.99,,,0.00,Acu-Link.com,2013-04-20 00:56:00,
2013-04-19 21:11:00,70.7,70.1,29.66,SW,225,10.4,-999.0,98,-99.99,,,0.00,Acu-Link.com,2013-04-20 01:11:00,
2013-04-19 21:26:00,70.7,70.1,29.67,SSW,202,4.7,-999.0,98,-99.99,,,0.00,Acu-Link.com,2013-04-20 01:26:00,
2013-04-19 21:41:00,70.9,70.3,29.68,SSW,202,11.9,-999.0,98,-99.99,,,0.00,Acu-Link.com,2013-04-20 01:41:00,
2013-04-19 21:57:00,70.7,70.1,29.67,SW,225,6.8,-999.0,98,-99.99,,,0.00,Acu-Link.com,2013-04-20 01:57:00,
2013-04-19 22:12:00,70.3,69.7,29.69,SSW,202,11.4,-999.0,98,-99.99,,,0.00,Acu-Link.com,2013-04-20 02:12:00,
2013-04-19 22:27:00,70.0,69.4,29.70,SSW,202,4.7,-999.0,98,-99.99,,,0.01,Acu-Link.com,2013-04-20 02:27:00,
2013-04-19 22:42:00,69.6,69.0,29.70,SW,225,8.9,-999.0,98,-99.99,,,0.04,Acu-Link.com,2013-04-20 02:42:00,
2013-04-19 22:57:00,68.9,68.3,29.70,SW,225,9.9,-999.0,98,-99.99,,,0.10,Acu-Link.com,2013-04-20 02:57:00,
2013-04-19 23:12:00,68.2,67.6,29.70,SSW,202,16.6,-999.0,98,-99.99,,,0.10,Acu-Link.com,2013-04-20 03:12:00,
2013-04-19 23:28:00,67.6,67.0,29.70,NNW,337,6.8,-999.0,98,-99.99,,,0.11,Acu-Link.com,2013-04-20 03:28:00,
2013-04-19 23:43:00,66.7,66.1,29.70,SSW,202,8.9,-999.0,98,-99.99,,,0.13,Acu-Link.com,2013-04-20 03:43:00,
2013-04-19 23:58:00,66.7,66.1,29.70,SW,225,3.7,-999.0,98,-99.99,,,0.13,Acu-Link.com,2013-04-20 03:58:00,